#�ϑ�����,���ϕ���,���ϕ���,�ő啗��,�ő啗����������,�ő�u�ԕ���,�ő�u�ԕ�����������
#(�N����),(m/s)   ,(16����),(m/s)   ,(16����)        ,(m/s)       ,(16����)            
2017/12/1 0:01,1.3,14,1.3,14,2.1,14
2017/12/1 0:02,1.3,13,1.3,14,2.1,13
2017/12/1 0:03,1.3,13,1.3,14,1,13
2017/12/1 0:04,1.4,13,1.4,13,3.8,16
2017/12/1 0:05,1.7,13,1.7,13,5.1,15
2017/12/1 0:06,1.8,13,1.8,13,3.3,16
2017/12/1 0:07,1.9,14,1.9,14,3.5,15
2017/12/1 0:08,1.9,14,2,14,3.3,16
2017/12/1 0:09,1.8,14,1.9,14,3.1,16
2017/12/1 0:10,1.8,15,1.8,14,1.8,15
2017/12/1 0:11,1.9,15,1.9,14,2.9,15
2017/12/1 0:12,2,15,2,14,3.1,16
2017/12/1 0:13,2.2,15,2.2,15,2.5,15
2017/12/1 0:14,2.1,15,2.2,15,2.2,16
2017/12/1 0:15,2,15,2.1,15,2.9,15
2017/12/1 0:16,1.9,15,2,15,2.2,16
2017/12/1 0:17,1.8,15,1.9,15,1.8,15
2017/12/1 0:18,1.6,15,1.8,15,1.4,16
2017/12/1 0:19,1.5,15,1.6,15,1.1,15
2017/12/1 0:20,1.5,15,1.5,15,1.9,15
2017/12/1 0:21,1.6,15,1.6,15,3.3,15
2017/12/1 0:22,1.6,15,1.6,15,3.5,16
2017/12/1 0:23,1.7,15,1.7,15,5.2,15
2017/12/1 0:24,1.9,15,1.9,15,4.9,15
2017/12/1 0:25,1.9,15,1.9,15,3.1,15
2017/12/1 0:26,1.8,15,1.9,15,1.8,16
2017/12/1 0:27,1.7,15,1.8,15,1.4,15
2017/12/1 0:28,1.8,15,1.8,15,1.5,13
2017/12/1 0:29,1.8,14,1.8,15,1.5,14
2017/12/1 0:30,1.7,14,1.8,15,1.1,14
2017/12/1 0:31,1.5,14,1.7,15,1.6,9
2017/12/1 0:32,1.3,14,1.5,15,2.2,8
2017/12/1 0:33,1.3,13,1.4,15,3.3,9
2017/12/1 0:34,1.1,12,1.3,15,2.6,9
2017/12/1 0:35,1,12,1.1,15,2.6,9
2017/12/1 0:36,1,11,1.1,15,1.5,9
2017/12/1 0:37,1.2,11,1.2,15,3,15
2017/12/1 0:38,1.3,12,1.3,15,3.2,15
2017/12/1 0:39,1.4,12,1.4,14,3.2,14
2017/12/1 0:40,1.6,12,1.6,14,3.1,13
2017/12/1 0:41,1.8,12,1.8,12,3.3,14
2017/12/1 0:42,1.8,12,1.8,12,2.6,12
2017/12/1 0:43,1.7,13,1.8,12,2,14
2017/12/1 0:44,1.8,13,1.8,12,2.5,16
2017/12/1 0:45,1.8,14,1.8,12,1.9,14
2017/12/1 0:46,1.9,14,1.9,14,3.9,11
2017/12/1 0:47,2,13,2,13,3.1,13
2017/12/1 0:48,2,13,2,13,3.9,11
2017/12/1 0:49,2,13,2,13,5.6,12
2017/12/1 0:50,2.1,13,2.1,13,5.2,13
2017/12/1 0:51,2,13,2.1,13,2.6,13
2017/12/1 0:52,2.1,13,2.1,13,2.2,13
2017/12/1 0:53,2.1,13,2.1,13,3.3,9
2017/12/1 0:54,2.1,12,2.1,13,3.9,10
2017/12/1 0:55,2.3,12,2.3,12,5.4,11
2017/12/1 0:56,2.5,12,2.5,12,5.6,13
2017/12/1 0:57,2.6,13,2.6,12,6,15
2017/12/1 0:58,2.6,12,2.6,12,5.6,13
2017/12/1 0:59,2.5,13,2.6,12,4.4,13
2017/12/1 1:00,2.4,12,2.5,12,4.8,10
2017/12/1 1:01,2.5,12,2.5,12,5.4,10
2017/12/1 1:02,2.6,12,2.6,12,3.9,10
2017/12/1 1:03,2.6,12,2.6,12,2.6,12
2017/12/1 1:04,2.4,13,2.6,12,1.6,13
2017/12/1 1:05,2.3,13,2.4,12,1.8,11
2017/12/1 1:06,1.9,13,2.2,12,1.5,10
2017/12/1 1:07,1.7,12,1.9,13,0.8,11
2017/12/1 1:08,1.6,12,1.7,12,2.2,13
2017/12/1 1:09,1.5,12,1.6,12,2.7,12
2017/12/1 1:10,1.5,12,1.6,12,2.4,10
2017/12/1 1:11,1.4,12,1.4,12,2.2,12
2017/12/1 1:12,1.2,12,1.3,12,2,12
2017/12/1 1:13,1.1,12,1.2,12,1.3,12
2017/12/1 1:14,1.1,11,1.1,13,1.5,10
2017/12/1 1:15,1.1,11,1.1,13,2.5,10
2017/12/1 1:16,1,11,1.1,12,0.6,9
2017/12/1 1:17,1.1,11,1.1,12,1.1,2
2017/12/1 1:18,0.9,11,1,12,1.1,3
2017/12/1 1:19,0.8,10,0.9,11,1.5,7
2017/12/1 1:20,0.8,11,0.8,12,2,10
2017/12/1 1:21,0.9,11,0.9,12,5.2,13
2017/12/1 1:22,1.1,11,1.1,12,4.4,14
2017/12/1 1:23,1.2,12,1.2,12,2.9,13
2017/12/1 1:24,1.4,13,1.4,13,2.5,13
2017/12/1 1:25,1.4,14,1.4,13,2.5,15
2017/12/1 1:26,1.4,14,1.4,13,1.1,13
2017/12/1 1:27,1.6,13,1.6,13,3.3,13
2017/12/1 1:28,1.7,13,1.7,13,4.5,12
2017/12/1 1:29,1.8,13,1.8,13,2,14
2017/12/1 1:30,1.7,13,1.8,13,1.1,9
2017/12/1 1:31,1.4,13,1.7,13,1.6,9
2017/12/1 1:32,1.3,12,1.4,13,2.1,9
2017/12/1 1:33,1.3,12,1.3,13,2.2,9
2017/12/1 1:34,1.2,11,1.3,13,1.9,8
2017/12/1 1:35,1.2,11,1.2,13,1.9,9
2017/12/1 1:36,1.3,10,1.3,13,2.9,8
2017/12/1 1:37,1.2,10,1.3,13,2.6,9
2017/12/1 1:38,1.2,10,1.2,13,2.5,10
2017/12/1 1:39,1.3,10,1.3,13,3,11
2017/12/1 1:40,1.4,9,1.4,13,3.1,10
2017/12/1 1:41,1.5,10,1.5,10,2.2,8
2017/12/1 1:42,1.5,10,1.5,10,2.4,10
2017/12/1 1:43,1.5,10,1.5,10,2,10
2017/12/1 1:44,1.4,10,1.5,10,1.8,11
2017/12/1 1:45,1.4,11,1.4,10,2.4,11
2017/12/1 1:46,1.5,11,1.5,10,2.4,12
2017/12/1 1:47,1.5,11,1.5,10,2.4,12
2017/12/1 1:48,1.4,11,1.5,10,2.1,10
2017/12/1 1:49,1.3,11,1.4,10,2,12
2017/12/1 1:50,1.3,12,1.3,10,1.8,11
2017/12/1 1:51,1.3,12,1.4,10,1.6,12
2017/12/1 1:52,1.2,11,1.3,10,1.4,12
2017/12/1 1:53,1.1,11,1.2,10,0.9,10
2017/12/1 1:54,1.2,11,1.2,11,2,12
2017/12/1 1:55,1.1,11,1.2,11,1.4,12
2017/12/1 1:56,1.1,11,1.1,11,2,9
2017/12/1 1:57,1,11,1,11,2.1,9
2017/12/1 1:58,1,11,1,11,2.5,11
2017/12/1 1:59,1,11,1,12,1.8,12
2017/12/1 2:00,1,11,1,12,1.3,11
2017/12/1 2:01,0.9,11,1,12,0.9,12
2017/12/1 2:02,0.9,11,0.9,11,1.3,13
2017/12/1 2:03,1,11,1,11,1.4,11
2017/12/1 2:04,0.9,11,1,11,1,12
2017/12/1 2:05,0.9,12,0.9,11,1.3,16
2017/12/1 2:06,0.8,12,0.9,11,1.8,2
2017/12/1 2:07,0.8,13,0.8,11,1.6,2
2017/12/1 2:08,0.7,14,0.8,11,1.9,16
2017/12/1 2:09,0.7,15,0.7,11,1,2
2017/12/1 2:10,0.7,16,0.7,11,1.5,2
2017/12/1 2:11,0.7,16,0.7,11,0.9,15
2017/12/1 2:12,0.6,1,0.7,11,0.6,16
2017/12/1 2:13,0.6,1,0.6,11,0.5,2
2017/12/1 2:14,0.5,1,0.6,11,1,10
2017/12/1 2:15,0.5,1,0.5,12,1,9
2017/12/1 2:16,0.6,1,0.6,12,1.5,9
2017/12/1 2:17,0.5,1,0.6,13,1.3,9
2017/12/1 2:18,0.5,1,0.5,14,1.5,9
2017/12/1 2:19,0.6,10,0.6,15,1.6,11
2017/12/1 2:20,0.6,10,0.6,16,1.6,12
2017/12/1 2:21,0.6,10,0.6,16,1.3,10
2017/12/1 2:22,0.7,9,0.7,10,1.8,9
2017/12/1 2:23,0.9,10,0.9,10,2.5,10
2017/12/1 2:24,1,9,1,10,2.2,9
2017/12/1 2:25,1.1,9,1.1,9,2.4,10
2017/12/1 2:26,1.1,9,1.1,9,2,8
2017/12/1 2:27,1.2,9,1.2,10,1.5,8
2017/12/1 2:28,1.1,10,1.2,10,1.6,12
2017/12/1 2:29,1,9,1.1,10,0.8,12
2017/12/1 2:30,1,9,1,10,1.3,1
2017/12/1 2:31,1,9,1,10,1.4,4
2017/12/1 2:32,1,8,1,10,1.4,3
2017/12/1 2:33,0.8,7,0.9,10,0.5,4
2017/12/1 2:34,0.8,6,0.8,10,2.2,9
2017/12/1 2:35,0.8,6,0.8,10,2.7,7
2017/12/1 2:36,0.8,6,0.8,10,2,6
2017/12/1 2:37,0.7,6,0.8,10,1.5,9
2017/12/1 2:38,0.9,7,0.9,10,3.7,10
2017/12/1 2:39,1,7,1,9,2.4,9
2017/12/1 2:40,1,7,1,9,2.7,6
2017/12/1 2:41,1.1,8,1.1,8,3.2,10
2017/12/1 2:42,1.2,9,1.2,9,3.2,9
2017/12/1 2:43,1.4,9,1.4,9,6.4,10
2017/12/1 2:44,1.5,9,1.5,9,4.2,9
2017/12/1 2:45,1.7,10,1.7,10,5.2,9
2017/12/1 2:46,1.8,10,1.8,10,6,10
2017/12/1 2:47,2.2,10,2.2,10,6.2,9
2017/12/1 2:48,2.2,10,2.2,10,6.2,10
2017/12/1 2:49,2.3,10,2.3,10,5.1,12
2017/12/1 2:50,2.4,10,2.4,10,4.1,10
2017/12/1 2:51,2.4,10,2.5,10,4.4,10
2017/12/1 2:52,2.5,10,2.5,10,4.9,10
2017/12/1 2:53,2.5,10,2.5,10,4.3,11
2017/12/1 2:54,2.6,10,2.6,10,6.8,11
2017/12/1 2:55,2.5,11,2.6,10,7.2,10
2017/12/1 2:56,2.5,11,2.6,10,3.9,13
2017/12/1 2:57,2.2,11,2.5,10,2.5,11
2017/12/1 2:58,2.1,11,2.1,10,4.7,9
2017/12/1 2:59,2.1,11,2.2,10,5.4,12
2017/12/1 3:00,2.2,12,2.2,10,5.7,12
2017/12/1 3:01,2.1,12,2.2,10,4.8,12
2017/12/1 3:02,2.2,12,2.2,10,7,13
2017/12/1 3:03,2.5,12,2.5,10,8.7,11
2017/12/1 3:04,2.4,12,2.5,10,3.5,12
2017/12/1 3:05,2.4,12,2.4,11,3.8,14
2017/12/1 3:06,2.6,12,2.6,12,7.2,13
2017/12/1 3:07,2.8,12,2.8,12,6.5,13
2017/12/1 3:08,3,12,3,12,4.9,14
2017/12/1 3:09,3,12,3,12,6.3,9
2017/12/1 3:10,2.9,12,3,12,4.2,12
2017/12/1 3:11,3,12,3,12,4.8,10
2017/12/1 3:12,3,12,3.1,12,6.8,11
2017/12/1 3:13,2.9,12,2.9,12,6.1,12
2017/12/1 3:14,2.9,12,2.9,12,4.8,11
2017/12/1 3:15,3.1,12,3.1,12,6.9,14
2017/12/1 3:16,2.7,12,3.1,12,1.5,12
2017/12/1 3:17,2.7,11,2.7,12,7.1,12
2017/12/1 3:18,2.8,12,2.8,12,6.9,12
2017/12/1 3:19,2.9,12,2.9,12,6.7,11
2017/12/1 3:20,3,12,3,12,6.7,15
2017/12/1 3:21,3.5,12,3.5,12,10.7,14
2017/12/1 3:22,3.5,13,3.5,12,6.2,14
2017/12/1 3:23,3.8,13,3.8,13,9.7,15
2017/12/1 3:24,4,13,4,13,8.3,14
2017/12/1 3:25,4.1,13,4.1,13,9.9,14
2017/12/1 3:26,4.5,13,4.5,13,7.8,15
2017/12/1 3:27,4.5,14,4.6,13,8.6,13
2017/12/1 3:28,4.5,14,4.5,13,6.3,13
2017/12/1 3:29,4.3,14,4.5,13,5.5,14
2017/12/1 3:30,4.2,13,4.3,13,5.4,11
2017/12/1 3:31,3.9,13,4.2,13,4.4,12
2017/12/1 3:32,3.8,13,3.8,13,6.4,13
2017/12/1 3:33,3.4,14,3.7,13,6.2,14
2017/12/1 3:34,3.2,13,3.4,13,3.2,12
2017/12/1 3:35,3,13,3.2,13,5.2,12
2017/12/1 3:36,2.8,13,3,13,4.4,10
2017/12/1 3:37,2.7,13,2.8,14,4.9,11
2017/12/1 3:38,2.7,13,2.7,14,4.9,14
2017/12/1 3:39,2.6,13,2.7,14,4.8,10
2017/12/1 3:40,2.8,13,2.8,13,7.6,12
2017/12/1 3:41,2.9,13,2.9,13,6.4,13
2017/12/1 3:42,2.9,13,3,13,6.3,13
2017/12/1 3:43,3,12,3,14,5.7,11
2017/12/1 3:44,3.2,12,3.2,13,8.1,12
2017/12/1 3:45,3.4,12,3.4,12,9.9,11
2017/12/1 3:46,3.5,12,3.5,12,7.4,11
2017/12/1 3:47,3.7,11,3.7,12,7.6,10
2017/12/1 3:48,3.9,11,3.9,11,6.4,11
2017/12/1 3:49,3.9,11,3.9,11,5.4,13
2017/12/1 3:50,3.9,11,4,11,7.7,12
2017/12/1 3:51,3.8,11,3.9,11,6.8,12
2017/12/1 3:52,3.7,11,3.8,11,6,11
2017/12/1 3:53,3.6,11,3.7,11,5.7,11
2017/12/1 3:54,3.7,11,3.7,11,6.9,10
2017/12/1 3:55,3.5,11,3.7,11,5.7,9
2017/12/1 3:56,3.4,11,3.5,11,6.1,10
2017/12/1 3:57,3.4,11,3.4,11,6.8,10
2017/12/1 3:58,3.6,11,3.6,11,9,11
2017/12/1 3:59,3.8,10,3.8,11,9,10
2017/12/1 4:00,3.8,10,3.8,11,7.8,10
2017/12/1 4:01,3.8,10,3.8,11,5.7,13
2017/12/1 4:02,3.9,10,3.9,10,6.3,10
2017/12/1 4:03,3.9,10,3.9,10,5.4,9
2017/12/1 4:04,3.8,10,3.9,10,6.9,10
2017/12/1 4:05,3.6,10,3.8,10,4.9,8
2017/12/1 4:06,3.6,10,3.6,10,4.7,15
2017/12/1 4:07,3.6,11,3.6,10,6.2,13
2017/12/1 4:08,3.2,10,3.5,10,5,9
2017/12/1 4:09,3,11,3.1,10,5.4,10
2017/12/1 4:10,2.8,11,2.9,10,4.8,10
2017/12/1 4:11,2.8,10,2.9,10,3.6,11
2017/12/1 4:12,2.6,10,2.7,10,3.9,9
2017/12/1 4:13,2.4,10,2.6,10,3.8,9
2017/12/1 4:14,2.3,10,2.5,10,3.6,10
2017/12/1 4:15,2.3,10,2.3,10,3.8,10
2017/12/1 4:16,2.4,10,2.4,11,4.9,10
2017/12/1 4:17,2.2,10,2.4,11,3.5,9
2017/12/1 4:18,2.2,10,2.2,10,4.1,10
2017/12/1 4:19,2.1,10,2.2,11,4.5,10
2017/12/1 4:20,2.1,10,2.1,11,3.1,11
2017/12/1 4:21,2.1,10,2.1,10,3.2,9
2017/12/1 4:22,2.1,10,2.1,10,2.6,9
2017/12/1 4:23,2.1,10,2.1,10,2.7,10
2017/12/1 4:24,2.1,10,2.1,10,3.8,10
2017/12/1 4:25,2.3,10,2.4,10,4.7,9
2017/12/1 4:26,2.3,10,2.3,10,4.5,9
2017/12/1 4:27,2.4,10,2.4,10,4.1,9
2017/12/1 4:28,2.4,10,2.4,10,3,9
2017/12/1 4:29,2.2,10,2.3,10,2,8
2017/12/1 4:30,2.3,9,2.3,10,5.8,8
2017/12/1 4:31,2.3,9,2.3,10,3.6,13
2017/12/1 4:32,2.3,9,2.3,10,2.4,9
2017/12/1 4:33,2.3,9,2.3,10,2.5,8
2017/12/1 4:34,2.1,9,2.2,10,1.4,7
2017/12/1 4:35,2,9,2.1,10,1.6,5
2017/12/1 4:36,1.8,8,2,10,1.9,5
2017/12/1 4:37,1.6,8,1.8,10,2,6
2017/12/1 4:38,1.5,7,1.6,10,1,3
2017/12/1 4:39,1.5,6,1.5,9,1.9,5
2017/12/1 4:40,1.3,6,1.5,9,1.9,4
2017/12/1 4:41,1.2,5,1.3,9,2.1,4
2017/12/1 4:42,1.1,5,1.2,9,0.9,8
2017/12/1 4:43,1,5,1.1,9,1.8,6
2017/12/1 4:44,1.1,4,1.1,9,2.1,2
2017/12/1 4:45,1,4,1.1,8,1.5,2
2017/12/1 4:46,1,4,1,8,1.3,1
2017/12/1 4:47,1,4,1,8,1.5,4
2017/12/1 4:48,1,4,1,7,1.5,4
2017/12/1 4:49,1.1,3,1.1,6,1.8,3
2017/12/1 4:50,1,3,1.1,6,1.9,3
2017/12/1 4:51,1,3,1,5,1.4,16
2017/12/1 4:52,1.1,3,1.1,5,2,2
2017/12/1 4:53,1,3,1.1,5,1.6,3
2017/12/1 4:54,1.1,3,1.1,4,2.7,5
2017/12/1 4:55,1.2,4,1.2,3,2.1,6
2017/12/1 4:56,1.2,4,1.2,3,2,6
2017/12/1 4:57,1.2,4,1.2,3,1.6,7
2017/12/1 4:58,1.1,4,1.2,3,1.4,1
2017/12/1 4:59,1.2,4,1.2,3,2.4,16
2017/12/1 5:00,1.1,3,1.1,3,1.5,15
2017/12/1 5:01,1.1,3,1.1,3,0.6,15
2017/12/1 5:02,1.1,3,1.1,3,1,14
2017/12/1 5:03,1,1,1.1,3,0.3,12
2017/12/1 5:04,0.8,1,1,3,0.4,3
2017/12/1 5:05,0.7,16,0.8,4,0.3,5
2017/12/1 5:06,0.6,16,0.6,4,1.3,15
2017/12/1 5:07,0.6,16,0.6,4,1.9,15
2017/12/1 5:08,0.6,15,0.7,4,1.8,15
2017/12/1 5:09,0.5,15,0.6,4,0.1,16
2017/12/1 5:10,0.4,15,0.5,3,0.9,16
2017/12/1 5:11,0.4,16,0.4,3,0.9,1
2017/12/1 5:12,0.3,16,0.4,2,0.9,4
2017/12/1 5:13,0.4,1,0.4,1,0.9,4
2017/12/1 5:14,0.4,16,0.4,1,0.3,11
2017/12/1 5:15,0.4,16,0.4,16,1.5,16
2017/12/1 5:16,0.6,16,0.6,16,2.4,15
2017/12/1 5:17,0.5,16,0.6,16,2,13
2017/12/1 5:18,0.5,15,0.5,15,0.6,10
2017/12/1 5:19,0.6,2,0.6,16,1.6,5
2017/12/1 5:20,0.7,4,0.7,3,1.6,5
2017/12/1 5:21,0.7,5,0.7,3,1.1,16
2017/12/1 5:22,0.8,2,0.8,5,2.5,16
2017/12/1 5:23,0.9,16,0.9,16,2.2,16
2017/12/1 5:24,0.9,1,1,16,0.8,15
2017/12/1 5:25,1,1,1,16,1.5,8
2017/12/1 5:26,0.9,4,1,16,1.6,6
2017/12/1 5:27,0.8,4,0.9,16,1.3,6
2017/12/1 5:28,0.8,3,0.8,16,0.6,3
2017/12/1 5:29,0.8,3,0.8,16,0.6,3
2017/12/1 5:30,0.7,3,0.7,16,0.8,4
2017/12/1 5:31,0.8,4,0.8,16,1.9,4
2017/12/1 5:32,0.7,4,0.8,16,0.9,15
2017/12/1 5:33,0.8,4,0.8,16,3.6,15
2017/12/1 5:34,0.9,4,0.9,1,3.5,15
2017/12/1 5:35,0.9,4,0.9,1,1.5,7
2017/12/1 5:36,0.9,4,0.9,5,1.4,7
2017/12/1 5:37,1,3,1,3,1.1,6
2017/12/1 5:38,1,4,1,3,1.4,6
2017/12/1 5:39,1.1,4,1.1,4,1.6,15
2017/12/1 5:40,1.2,3,1.2,3,2.4,16
2017/12/1 5:41,1.1,2,1.2,3,1.9,15
2017/12/1 5:42,1.1,2,1.1,3,0.8,14
2017/12/1 5:43,1,3,1.1,3,2.1,5
2017/12/1 5:44,0.9,4,1,3,1.3,4
2017/12/1 5:45,0.8,3,0.9,3,0.9,3
2017/12/1 5:46,0.8,2,0.8,3,1.9,7
2017/12/1 5:47,0.9,2,0.9,3,2.2,8
2017/12/1 5:48,0.9,2,0.9,3,2.2,6
2017/12/1 5:49,0.9,1,1,3,2.6,10
2017/12/1 5:50,0.9,8,0.9,3,2,9
2017/12/1 5:51,0.9,7,0.9,2,2.7,8
2017/12/1 5:52,1.1,7,1.1,2,2.2,3
2017/12/1 5:53,1,7,1.1,7,0.9,4
2017/12/1 5:54,1,7,1,7,2.6,5
2017/12/1 5:55,1.1,7,1.1,7,2.6,2
2017/12/1 5:56,1.1,6,1.1,7,1,5
2017/12/1 5:57,1,6,1.1,7,1.3,16
2017/12/1 5:58,0.9,6,1,7,1,7
2017/12/1 5:59,0.8,5,0.9,7,1,4
2017/12/1 6:00,0.8,5,0.8,7,0.6,5
2017/12/1 6:01,0.8,5,0.8,7,2,6
2017/12/1 6:02,0.9,5,0.9,7,3.8,5
2017/12/1 6:03,1,5,1,7,2.7,4
2017/12/1 6:04,1,4,1.1,7,2.5,4
2017/12/1 6:05,0.9,4,1,7,1.8,4
2017/12/1 6:06,1,5,1,6,1.9,5
2017/12/1 6:07,1.1,5,1.1,5,1.9,6
2017/12/1 6:08,1.1,4,1.1,5,1.4,15
2017/12/1 6:09,1,4,1,5,1,1
2017/12/1 6:10,1.1,4,1.1,5,1.8,8
2017/12/1 6:11,1.1,4,1.1,5,2.1,9
2017/12/1 6:12,1,5,1.1,5,3.5,8
2017/12/1 6:13,1,5,1,5,2.5,7
2017/12/1 6:14,1,5,1,5,1.3,16
2017/12/1 6:15,0.9,6,1,5,0.4,14
2017/12/1 6:16,0.8,8,0.9,5,0.6,16
2017/12/1 6:17,0.9,11,0.9,5,3,15
2017/12/1 6:18,0.9,9,0.9,4,2.1,16
2017/12/1 6:19,0.9,8,0.9,4,0.9,5
2017/12/1 6:20,1,6,1,4,2.2,3
2017/12/1 6:21,1.1,4,1.1,4,2.4,2
2017/12/1 6:22,0.9,3,1,5,1,16
2017/12/1 6:23,0.8,2,0.9,5,1.1,15
2017/12/1 6:24,0.8,2,0.8,5,1.6,16
2017/12/1 6:25,0.8,2,0.8,5,1.8,16
2017/12/1 6:26,0.8,3,0.8,5,1.3,7
2017/12/1 6:27,0.7,3,0.8,5,1.5,8
2017/12/1 6:28,0.7,4,0.7,5,0.9,9
2017/12/1 6:29,0.7,4,0.7,5,1,7
2017/12/1 6:30,0.7,5,0.7,5,2.5,8
2017/12/1 6:31,0.7,6,0.7,4,2.1,7
2017/12/1 6:32,0.8,7,0.8,3,1.6,7
2017/12/1 6:33,0.7,7,0.7,2,0.4,14
2017/12/1 6:34,0.7,7,0.7,2,0.6,12
2017/12/1 6:35,0.8,8,0.8,2,2,11
2017/12/1 6:36,0.8,9,0.9,9,1.6,12
2017/12/1 6:37,0.9,8,0.9,9,1.9,7
2017/12/1 6:38,0.9,8,0.9,9,1.6,9
2017/12/1 6:39,1,8,1,8,3.8,9
2017/12/1 6:40,1,8,1,8,2.2,9
2017/12/1 6:41,0.9,9,1,8,2.2,9
2017/12/1 6:42,0.9,9,0.9,8,1.8,14
2017/12/1 6:43,0.9,9,0.9,8,1,11
2017/12/1 6:44,1.2,9,1.2,9,3.7,12
2017/12/1 6:45,1.2,9,1.2,9,3.5,12
2017/12/1 6:46,1.2,10,1.2,9,1.6,11
2017/12/1 6:47,1.2,11,1.3,10,1.5,13
2017/12/1 6:48,1.3,11,1.3,10,1.3,14
2017/12/1 6:49,1.2,12,1.3,10,1.1,8
2017/12/1 6:50,1.1,12,1.2,10,1.8,12
2017/12/1 6:51,1.1,13,1.1,10,0.9,14
2017/12/1 6:52,1,13,1,10,0.6,15
2017/12/1 6:53,1.1,13,1.1,10,1.9,11
2017/12/1 6:54,0.9,13,1.1,10,1.9,11
2017/12/1 6:55,0.9,13,0.9,10,1.4,14
2017/12/1 6:56,1,14,1,10,3.3,16
2017/12/1 6:57,1,14,1,11,2.9,15
2017/12/1 6:58,1.1,14,1.1,11,2.2,15
2017/12/1 6:59,1.2,14,1.2,12,2.1,11
2017/12/1 7:00,1.3,14,1.3,14,3,16
2017/12/1 7:01,1.4,14,1.4,14,3.2,15
2017/12/1 7:02,1.5,14,1.5,14,2.9,15
2017/12/1 7:03,1.6,14,1.6,14,2.4,15
2017/12/1 7:04,1.6,14,1.6,14,1.9,16
2017/12/1 7:05,1.6,14,1.6,14,2.5,14
2017/12/1 7:06,1.5,14,1.6,14,2,14
2017/12/1 7:07,1.6,14,1.6,14,3.2,11
2017/12/1 7:08,1.8,13,1.8,13,4.2,10
2017/12/1 7:09,1.9,13,1.9,13,4.2,11
2017/12/1 7:10,2,13,2,13,3.7,10
2017/12/1 7:11,1.9,13,2,13,1.6,16
2017/12/1 7:12,1.9,13,1.9,13,2.2,16
2017/12/1 7:13,1.8,13,1.9,13,2,13
2017/12/1 7:14,1.9,12,1.9,13,2.5,12
2017/12/1 7:15,1.8,12,1.9,13,2,13
2017/12/1 7:16,1.9,12,1.9,13,3.2,13
2017/12/1 7:17,1.7,12,1.9,13,3,12
2017/12/1 7:18,1.5,13,1.7,13,1.5,15
2017/12/1 7:19,1.3,13,1.5,13,1.9,16
2017/12/1 7:20,1.1,13,1.3,13,1.9,12
2017/12/1 7:21,1.3,13,1.3,13,3,11
2017/12/1 7:22,1.3,13,1.3,13,2.2,12
2017/12/1 7:23,1.4,13,1.4,13,4.3,13
2017/12/1 7:24,1.3,13,1.4,12,2.7,8
2017/12/1 7:25,1.4,12,1.4,12,2.4,11
2017/12/1 7:26,1.3,12,1.4,12,1.5,13
2017/12/1 7:27,1.3,12,1.3,12,2.4,13
2017/12/1 7:28,1.4,12,1.4,13,2.9,14
2017/12/1 7:29,1.4,12,1.4,13,2.5,13
2017/12/1 7:30,1.4,11,1.4,13,1.9,9
2017/12/1 7:31,1.4,11,1.5,11,2.1,8
2017/12/1 7:32,1.4,10,1.4,11,3.3,8
2017/12/1 7:33,1.3,11,1.4,11,3,8
2017/12/1 7:34,1.3,11,1.3,11,2.2,16
2017/12/1 7:35,1.4,10,1.4,11,2.7,4
2017/12/1 7:36,1.6,8,1.6,8,3.9,2
2017/12/1 7:37,1.5,5,1.6,8,2.4,6
2017/12/1 7:38,1.4,4,1.5,8,2,16
2017/12/1 7:39,1.3,4,1.4,8,0.8,1
2017/12/1 7:40,1.2,4,1.3,8,1,7
2017/12/1 7:41,1.1,3,1.2,8,0.6,11
2017/12/1 7:42,1.1,3,1.1,8,2,4
2017/12/1 7:43,1.1,3,1.1,8,1.9,4
2017/12/1 7:44,1,4,1.1,8,1.1,4
2017/12/1 7:45,0.8,4,1,8,0.6,15
2017/12/1 7:46,0.6,3,0.8,7,0.6,2
2017/12/1 7:47,0.6,3,0.6,5,1.4,4
2017/12/1 7:48,0.6,4,0.6,4,1.3,4
2017/12/1 7:49,0.6,4,0.6,4,0.8,5
2017/12/1 7:50,0.7,4,0.7,4,2.1,8
2017/12/1 7:51,0.7,4,0.8,3,2.2,8
2017/12/1 7:52,0.7,4,0.7,3,1.1,8
2017/12/1 7:53,0.6,5,0.7,3,1.5,8
2017/12/1 7:54,0.6,5,0.6,4,1,8
2017/12/1 7:55,0.6,5,0.7,4,0.5,8
2017/12/1 7:56,0.7,6,0.7,4,1.4,7
2017/12/1 7:57,0.8,6,0.8,4,2.2,6
2017/12/1 7:58,0.8,6,0.8,4,2,6
2017/12/1 7:59,0.8,7,0.9,6,1.1,5
2017/12/1 8:00,0.7,7,0.8,6,0.6,14
2017/12/1 8:01,0.7,7,0.7,6,0.9,12
2017/12/1 8:02,0.7,8,0.8,6,0.8,14
2017/12/1 8:03,0.7,8,0.7,6,1.1,1
2017/12/1 8:04,0.7,4,0.7,6,1.5,1
2017/12/1 8:05,0.7,1,0.7,6,0.9,2
2017/12/1 8:06,0.6,16,0.7,6,0.5,5
2017/12/1 8:07,0.6,1,0.6,6,1.3,4
2017/12/1 8:08,0.6,16,0.6,6,3.6,6
2017/12/1 8:09,0.8,1,0.8,7,3.2,7
2017/12/1 8:10,0.9,3,0.9,3,1.9,6
2017/12/1 8:11,0.9,4,0.9,3,2.7,9
2017/12/1 8:12,1.1,5,1.1,5,4.2,9
2017/12/1 8:13,1.2,6,1.2,6,4.1,9
2017/12/1 8:14,1.2,7,1.2,6,3.6,9
2017/12/1 8:15,1.4,7,1.4,7,3.9,10
2017/12/1 8:16,1.6,7,1.6,7,5.1,9
2017/12/1 8:17,1.7,8,1.8,8,4.7,9
2017/12/1 8:18,1.8,8,1.8,8,3.9,8
2017/12/1 8:19,1.8,8,1.8,8,3.5,8
2017/12/1 8:20,1.8,9,1.8,8,2.4,9
2017/12/1 8:21,1.7,9,1.8,8,2,9
2017/12/1 8:22,1.6,9,1.7,8,1.6,8
2017/12/1 8:23,1.4,9,1.6,8,0.3,14
2017/12/1 8:24,1.4,9,1.4,8,2.2,8
2017/12/1 8:25,1.3,9,1.4,8,2.4,8
2017/12/1 8:26,1.2,9,1.3,8,2.7,9
2017/12/1 8:27,1.2,9,1.2,8,3.2,9
2017/12/1 8:28,1.1,10,1.2,8,2.9,12
2017/12/1 8:29,1.1,10,1.1,8,2.6,12
2017/12/1 8:30,1.1,10,1.2,9,3.6,10
2017/12/1 8:31,1.1,11,1.1,9,3.3,8
2017/12/1 8:32,1.2,11,1.2,9,2.5,11
2017/12/1 8:33,1.4,11,1.4,9,3.7,11
2017/12/1 8:34,1.5,11,1.5,11,3.3,11
2017/12/1 8:35,1.5,11,1.5,11,2.1,9
2017/12/1 8:36,1.6,11,1.6,11,2.9,8
2017/12/1 8:37,1.5,11,1.6,11,3,9
2017/12/1 8:38,1.6,11,1.6,11,3.5,9
2017/12/1 8:39,1.6,10,1.6,11,3.8,10
2017/12/1 8:40,1.5,10,1.6,11,1.3,11
2017/12/1 8:41,1.5,11,1.5,11,2.2,8
2017/12/1 8:42,1.4,10,1.5,11,1.6,10
2017/12/1 8:43,1.3,10,1.4,11,2.2,8
2017/12/1 8:44,1.3,10,1.3,11,2.9,11
2017/12/1 8:45,1.3,11,1.3,11,3.8,9
2017/12/1 8:46,1.2,11,1.3,11,2,13
2017/12/1 8:47,1.3,11,1.3,11,3.2,11
2017/12/1 8:48,1.2,11,1.3,10,3.3,10
2017/12/1 8:49,1.2,11,1.2,10,2.7,9
2017/12/1 8:50,1.3,10,1.3,10,3.1,9
2017/12/1 8:51,1.4,10,1.4,11,4.7,10
2017/12/1 8:52,1.6,10,1.6,10,4.7,10
2017/12/1 8:53,1.8,10,1.8,10,5,10
2017/12/1 8:54,1.8,10,1.8,10,4.2,9
2017/12/1 8:55,1.9,10,1.9,10,3.6,9
2017/12/1 8:56,2.1,10,2.1,10,4.8,10
2017/12/1 8:57,2,10,2.1,10,3,11
2017/12/1 8:58,1.9,10,2,10,1.3,9
2017/12/1 8:59,1.9,10,1.9,10,2.7,8
2017/12/1 9:00,1.9,10,1.9,10,2.7,4
2017/12/1 9:01,1.9,9,1.9,10,4.3,4
2017/12/1 9:02,1.9,9,1.9,10,4.2,6
2017/12/1 9:03,2,8,2,10,4.2,6
2017/12/1 9:04,2,7,2,10,3.3,6
2017/12/1 9:05,2.1,7,2.1,10,2.9,6
2017/12/1 9:06,2,6,2,10,3.7,5
2017/12/1 9:07,2.1,6,2.1,7,3.9,5
2017/12/1 9:08,2.4,5,2.4,6,4.2,6
2017/12/1 9:09,2.6,5,2.6,5,3.6,5
2017/12/1 9:10,2.7,5,2.7,5,3.3,5
2017/12/1 9:11,2.7,5,2.7,5,4.1,6
2017/12/1 9:12,2.8,5,2.8,5,4.9,6
2017/12/1 9:13,2.6,5,2.7,5,4.1,6
2017/12/1 9:14,2.6,5,2.6,5,4.8,6
2017/12/1 9:15,2.8,5,2.8,5,4.7,5
2017/12/1 9:16,2.8,5,2.8,5,4.7,5
2017/12/1 9:17,2.7,5,2.7,5,4.7,5
2017/12/1 9:18,2.6,5,2.7,5,4.1,5
2017/12/1 9:19,2.6,5,2.6,5,4.1,5
2017/12/1 9:20,2.6,5,2.6,5,3.9,5
2017/12/1 9:21,2.7,5,2.7,5,4.3,5
2017/12/1 9:22,2.7,4,2.7,5,4.1,4
2017/12/1 9:23,2.8,4,2.8,5,4.3,5
2017/12/1 9:24,2.7,4,2.8,5,3,5
2017/12/1 9:25,2.6,4,2.7,5,3.5,5
2017/12/1 9:26,2.7,5,2.7,4,3.3,6
2017/12/1 9:27,2.7,5,2.7,4,3.6,6
2017/12/1 9:28,2.7,5,2.7,4,3.2,5
2017/12/1 9:29,2.6,5,2.7,4,3.1,6
2017/12/1 9:30,2.5,5,2.6,4,2.4,5
2017/12/1 9:31,2.4,5,2.5,4,2.6,6
2017/12/1 9:32,2.3,6,2.4,4,2.9,7
2017/12/1 9:33,2.2,6,2.3,4,2.5,6
2017/12/1 9:34,2.1,6,2.2,4,2.2,5
2017/12/1 9:35,2,6,2.1,5,2.2,3
2017/12/1 9:36,1.9,5,2,5,2.2,3
2017/12/1 9:37,1.8,5,1.9,5,3.2,3
2017/12/1 9:38,1.8,5,1.8,5,3,5
2017/12/1 9:39,1.7,5,1.8,5,2.2,6
2017/12/1 9:40,1.7,5,1.7,5,2,5
2017/12/1 9:41,1.6,5,1.7,6,1.5,7
2017/12/1 9:42,1.5,5,1.6,6,1.6,7
2017/12/1 9:43,1.4,5,1.5,6,1.5,6
2017/12/1 9:44,1.4,5,1.4,6,1.5,6
2017/12/1 9:45,1.3,5,1.4,6,2.2,6
2017/12/1 9:46,1.3,5,1.3,5,2.2,6
2017/12/1 9:47,1.2,6,1.3,5,1.4,5
2017/12/1 9:48,1,6,1.2,5,0.5,14
2017/12/1 9:49,0.9,5,1,5,2.4,1
2017/12/1 9:50,1,5,1,5,5.2,1
2017/12/1 9:51,1.1,4,1.1,5,3,1
2017/12/1 9:52,1.1,3,1.1,5,1.1,16
2017/12/1 9:53,1.1,3,1.1,5,1.8,1
2017/12/1 9:54,1.1,2,1.1,5,2.4,14
2017/12/1 9:55,1.1,2,1.1,5,1.9,1
2017/12/1 9:56,1,1,1.1,5,1.5,11
2017/12/1 9:57,1.1,1,1.1,6,2.5,8
2017/12/1 9:58,1.2,1,1.2,1,2.6,7
2017/12/1 9:59,1.2,1,1.2,1,2.2,10
2017/12/1 10:00,1.2,1,1.2,1,3.6,8
2017/12/1 10:01,1.2,10,1.2,1,3.5,10
2017/12/1 10:02,1.2,9,1.2,1,2.1,5
2017/12/1 10:03,1.1,9,1.2,1,0.8,7
2017/12/1 10:04,1,8,1.1,1,1.8,13
2017/12/1 10:05,1,9,1,1,2.4,13
2017/12/1 10:06,1.2,10,1.2,1,3.7,12
2017/12/1 10:07,1.2,10,1.2,1,2.1,13
2017/12/1 10:08,1.4,10,1.4,10,5,11
2017/12/1 10:09,1.4,10,1.4,10,3.5,6
2017/12/1 10:10,1.5,11,1.6,11,6.7,13
2017/12/1 10:11,1.5,11,1.5,11,3.1,12
2017/12/1 10:12,1.7,12,1.7,12,4.7,11
2017/12/1 10:13,1.9,12,1.9,12,3.9,12
2017/12/1 10:14,2,12,2,12,3.1,11
2017/12/1 10:15,2.1,11,2.1,12,2.4,10
2017/12/1 10:16,2.1,11,2.1,12,5.1,2
2017/12/1 10:17,2.2,12,2.2,12,3.7,3
2017/12/1 10:18,2.2,13,2.3,12,4.7,2
2017/12/1 10:19,2.4,14,2.4,13,4.9,1
2017/12/1 10:20,2.4,16,2.4,13,5.4,1
2017/12/1 10:21,2.6,16,2.6,16,5.5,16
2017/12/1 10:22,2.4,1,2.6,16,3.9,16
2017/12/1 10:23,2.3,1,2.3,16,5.1,1
2017/12/1 10:24,2.5,1,2.5,16,5.5,16
2017/12/1 10:25,2.4,1,2.5,16,2.6,1
2017/12/1 10:26,2.2,1,2.4,16,1.4,13
2017/12/1 10:27,2,1,2.2,16,2,10
2017/12/1 10:28,2,1,2,16,5.8,10
2017/12/1 10:29,1.9,16,2,16,4.8,9
2017/12/1 10:30,2.1,15,2.1,16,8.3,10
2017/12/1 10:31,2.1,14,2.1,16,7.5,11
2017/12/1 10:32,2.3,12,2.3,1,7.5,11
2017/12/1 10:33,2.3,11,2.5,1,4.4,10
2017/12/1 10:34,2,11,2.3,1,2.2,12
2017/12/1 10:35,2.1,11,2.1,12,3,10
2017/12/1 10:36,2.2,11,2.2,12,3,9
2017/12/1 10:37,2.6,11,2.6,11,7.9,11
2017/12/1 10:38,2.7,11,2.7,11,6.1,12
2017/12/1 10:39,2.9,11,2.9,11,6,12
2017/12/1 10:40,2.7,12,2.9,11,6.7,12
2017/12/1 10:41,2.9,12,2.9,11,9.1,12
2017/12/1 10:42,3.2,12,3.2,12,8.6,12
2017/12/1 10:43,3.5,13,3.5,13,9.8,12
2017/12/1 10:44,3.8,13,3.8,13,7,13
2017/12/1 10:45,4.2,13,4.2,13,8.4,12
2017/12/1 10:46,4.4,12,4.4,12,7.6,10
2017/12/1 10:47,4.6,12,4.6,12,9,10
2017/12/1 10:48,4.6,12,4.6,12,7.1,10
2017/12/1 10:49,4.7,12,4.7,12,7.2,10
2017/12/1 10:50,4.7,12,4.8,12,5.6,10
2017/12/1 10:51,4.7,11,4.7,12,7.5,12
2017/12/1 10:52,4.5,11,4.7,12,7.4,10
2017/12/1 10:53,4.3,11,4.5,12,5.7,10
2017/12/1 10:54,4.1,11,4.3,12,6.4,10
2017/12/1 10:55,4,11,4.2,12,10.6,9
2017/12/1 10:56,4,11,4,12,7.9,8
2017/12/1 10:57,4,11,4.1,12,10.1,11
2017/12/1 10:58,4.2,11,4.2,12,10.3,10
2017/12/1 10:59,4.2,11,4.2,12,7.6,9
2017/12/1 11:00,4.3,11,4.3,12,9.2,11
2017/12/1 11:01,4.1,11,4.3,11,5.4,15
2017/12/1 11:02,3.9,11,4.1,11,6.4,10
2017/12/1 11:03,4.1,11,4.1,11,9,13
2017/12/1 11:04,4.3,11,4.4,11,7.9,10
2017/12/1 11:05,4.3,11,4.3,11,5.6,11
2017/12/1 11:06,4.2,11,4.3,11,7.6,10
2017/12/1 11:07,4,11,4.1,11,13.1,10
2017/12/1 11:08,3.9,11,4.1,11,8.1,10
2017/12/1 11:09,3.8,11,3.9,11,9.2,11
2017/12/1 11:10,3.9,11,3.9,11,9.1,10
2017/12/1 11:11,3.9,11,3.9,11,7.7,11
2017/12/1 11:12,4.1,11,4.1,11,12.2,9
2017/12/1 11:13,4.2,11,4.2,11,9,10
2017/12/1 11:14,4.1,11,4.2,11,7.6,11
2017/12/1 11:15,4.2,11,4.2,11,10.2,9
2017/12/1 11:16,4.4,11,4.4,11,11.3,12